Powrót do katalogu

MOLNIYA 1-32

AktywnyŁącznośćHEO
NORAD 8601·PAYLOAD·🇷🇺 Russia

Wystrzelony Jan 22, 1976 z Baikonur Cosmodrome

Loading…

Następne Przeloty (najbliższe 24 godziny)

TLE

ŚwieżeSource: Space-Track

Epoka: Sep 13, 2026, 19:51 UTC

1 08601U 76006A   26256.82763723  .00001241  00000-0  00000-0 0  9991
2 08601  63.6791 126.1809 6764354 275.6050  16.8390  2.00031621 83650

Śledź MOLNIYA 1-32 w czasie rzeczywistym z AllMySat

Download on the App Store